Showing default

KUIPER-00488, 68879

Orbit data source: Space-Track

KUIPER-00488, 68879 is an American payload satellite in LEO that was launched on Tue, 28 Apr 2026 UTC launched from the Air Force Eastern Test Range (AFETR). Payload-class satellites include a variety of spacecraft equipped with specific instruments for various scientific and technological missions. These include communications satellites like Starlink; space stations such as the ISS; scientific satellites like the Hubble; Earth observation satellites from companies like Planet Labs, Umbra, and HawkEye 360; GPS; miniature CubeSats for education and research; and military/defense satellites.

Loading next visibility...
Identifier
68879, 2026-095R
Orbit
LEO
Country
Flag of USUS
Related business
None
Manufacturer
Unknown
Mission
Operational spacecraft
Bus & Motor
Unknown
Mass
Unknown
Launch date (UTC)
2026-04-28 (4 days ago)
Launch vehicle
Unknown
Launch site
Air Force Eastern Test Range (AFETR)
Object type
Payload
Rocket body
Debris
Shape & HBR
Unknown
Radar Cross Section
RCS unknown

Expand to show TLE details & history
Last TLE update: 7 hours ago

TLE from 7 hours ago
0 KUIPER-00488
1 68879U 26095R   26122.16670139 -.00004899  00000-0 -12749-3 0  9994
2 68879  51.8663 104.9614 0011304 137.7713  42.4461 15.35748228  1863
Epoch: 2026-05-02T04:00Z
TLE epoch observation values (Epoch: 2026-05-02T04:00:03.000Z)
Latitude
-0.31935°
Longitude
5.10972°
Altitude
453.804 km
Speed
7.645 km/s
True Right ascension
19h 00m 50s
True Declination
0° 19' 02"
Sunlit
Object was in full shadow at epoch
Visualization orbit readout
Latitude
Unknown
Longitude
Unknown
Altitude
Unknown
Speed
Unknown
Apparent Right ascension
Unknown
Apparent Declination
Unknown
Sunlit
N/A
Visualization observer readout
Local Sidereal Time
18:38:25
Azimuth
Unknown
Elevation
Unknown
Doppler factor
Unknown
Orbital elements
Apogee altitude
466.896 km
Perigee altitude
451.438 km
Semi-major axis
6,837.304 km
Eccentricity
0.00113
Inclination
51.8663°
RAAN
104.9614°
Arg. of periapsis
137.7713°
True anomaly
42.53361°
Mean anomaly
42.4461°
Eccentric anomaly
42.48985°
Mean motion
3.83898 °/min
Orbital period
93.77 mins
BSTAR
-0.00012749
Loading maneuver chart data...
Computing Atmospheric mass density...
Loading historical data...
Loading historical data...
Loading historical data...
Loading historical data...
Loading historical data...
Loading historical data...
Loading historical data...

Documentation

Showing up to 5 results
|